Time,TemperatureF,DewpointF,PressureIn,WindDirection,WindDirectionDegrees,WindSpeedMPH,WindSpeedGustMPH,Humidity,HourlyPrecipIn,Conditions,Clouds,dailyrainin,SoftwareType,DateUTC
2013-03-25 00:03:00,28.0,26.0,29.93,NNW,340,4.0,8.0,91,0.00,,,0.03,,2013-03-25 05:03:00,
2013-03-25 00:12:00,28.0,26.0,29.93,NNW,340,4.0,8.0,91,0.00,,,0.03,,2013-03-25 05:12:00,
2013-03-25 00:22:00,28.0,26.0,29.93,North,349,2.0,8.0,91,0.00,,,0.03,,2013-03-25 05:22:00,
2013-03-25 00:32:00,28.0,26.0,29.93,North,349,2.0,8.0,91,0.00,,,0.03,,2013-03-25 05:32:00,
2013-03-25 00:52:00,28.0,26.0,29.93,NNW,340,2.0,8.0,91,0.00,,,0.03,,2013-03-25 05:52:00,
2013-03-25 01:02:00,28.0,26.0,29.93,NNW,345,3.0,7.0,91,0.00,,,0.03,,2013-03-25 06:02:00,
2013-03-25 01:12:00,28.0,26.0,29.93,NNW,345,3.0,7.0,91,0.00,,,0.03,,2013-03-25 06:12:00,
2013-03-25 01:22:00,28.0,26.0,29.93,NNW,333,3.0,8.0,91,0.00,,,0.03,,2013-03-25 06:22:00,
2013-03-25 01:32:00,28.0,26.0,29.93,NNW,333,3.0,8.0,91,0.00,,,0.03,,2013-03-25 06:32:00,
2013-03-25 01:42:00,28.0,26.0,29.93,NNW,333,3.0,8.0,91,0.00,,,0.03,,2013-03-25 06:42:00,
2013-03-25 01:52:00,28.0,26.0,29.93,NNW,342,2.0,7.0,91,0.00,,,0.03,,2013-03-25 06:52:00,
2013-03-25 02:02:00,28.0,26.0,29.93,NNW,348,4.0,8.0,91,0.00,,,0.03,,2013-03-25 07:02:00,
2013-03-25 02:12:00,28.0,26.0,29.93,NNW,348,4.0,8.0,91,0.00,,,0.03,,2013-03-25 07:12:00,
2013-03-25 02:22:00,28.0,26.0,29.93,NNW,342,5.0,10.0,91,0.00,,,0.03,,2013-03-25 07:22:00,
2013-03-25 02:32:00,28.0,26.0,29.93,NNW,342,5.0,10.0,91,0.00,,,0.03,,2013-03-25 07:32:00,
2013-03-25 02:42:00,28.0,26.0,29.93,NNW,342,5.0,10.0,91,0.00,,,0.03,,2013-03-25 07:42:00,
2013-03-25 02:53:00,28.0,26.0,29.94,North,351,6.0,10.0,91,0.00,,,0.03,,2013-03-25 07:53:00,
2013-03-25 03:02:00,28.0,26.0,29.93,NNW,346,6.0,11.0,91,0.00,,,0.03,,2013-03-25 08:02:00,
2013-03-25 03:12:00,28.0,26.0,29.93,NNW,346,6.0,11.0,91,0.00,,,0.03,,2013-03-25 08:12:00,
2013-03-25 03:22:00,28.0,26.0,29.93,North,10,4.0,9.0,91,0.00,,,0.03,,2013-03-25 08:22:00,
2013-03-25 03:32:00,28.0,26.0,29.93,North,10,4.0,9.0,91,0.00,,,0.03,,2013-03-25 08:32:00,
2013-03-25 03:42:00,28.0,26.0,29.93,North,10,4.0,9.0,91,0.00,,,0.03,,2013-03-25 08:42:00,
2013-03-25 03:52:00,28.0,26.0,29.93,NNW,346,3.0,8.0,91,0.00,,,0.03,,2013-03-25 08:52:00,
2013-03-25 04:02:00,28.0,26.0,29.93,North,351,3.0,7.0,91,0.00,,,0.03,,2013-03-25 09:02:00,
2013-03-25 04:12:00,28.0,26.0,29.93,North,351,3.0,7.0,91,0.00,,,0.03,,2013-03-25 09:12:00,
2013-03-25 04:22:00,28.0,25.0,29.93,NNW,345,4.0,8.0,90,0.00,,,0.03,,2013-03-25 09:22:00,
2013-03-25 04:32:00,28.0,25.0,29.93,NNW,345,4.0,8.0,90,0.00,,,0.03,,2013-03-25 09:32:00,
2013-03-25 04:42:00,28.0,25.0,29.93,NNW,345,4.0,8.0,90,0.00,,,0.03,,2013-03-25 09:42:00,
2013-03-25 04:52:00,28.0,25.0,29.93,North,351,3.0,8.0,90,0.00,,,0.03,,2013-03-25 09:52:00,
2013-03-25 05:03:00,28.0,25.0,29.93,North,351,3.0,9.0,90,0.00,,,0.03,,2013-03-25 10:03:00,
2013-03-25 05:12:00,28.0,25.0,29.93,North,351,3.0,9.0,90,0.00,,,0.03,,2013-03-25 10:12:00,
2013-03-25 05:22:00,28.0,25.0,29.93,North,353,3.0,10.0,90,0.00,,,0.03,,2013-03-25 10:22:00,
2013-03-25 05:32:00,28.0,25.0,29.93,North,353,5.0,10.0,89,0.00,,,0.03,,2013-03-25 10:32:00,
2013-03-25 05:42:00,28.0,25.0,29.93,North,353,5.0,10.0,89,0.00,,,0.03,,2013-03-25 10:42:00,
2013-03-25 05:53:00,28.0,25.0,29.94,NNW,345,5.0,12.0,89,0.00,,,0.03,,2013-03-25 10:53:00,
2013-03-25 06:03:00,28.0,25.0,29.94,North,352,8.0,15.0,89,0.00,,,0.03,,2013-03-25 11:03:00,
2013-03-25 06:12:00,28.0,25.0,29.95,NNW,348,9.0,15.0,88,0.00,,,0.03,,2013-03-25 11:12:00,
2013-03-25 06:23:00,28.0,25.0,29.95,NNW,348,9.0,15.0,88,0.00,,,0.03,,2013-03-25 11:23:00,
2013-03-25 06:32:00,27.0,24.0,29.95,North,2,8.0,13.0,87,0.00,,,0.03,,2013-03-25 11:32:00,
2013-03-25 06:42:00,27.0,24.0,29.95,North,2,8.0,13.0,87,0.00,,,0.03,,2013-03-25 11:42:00,
2013-03-25 06:52:00,27.0,24.0,29.96,NNW,348,6.0,14.0,87,0.00,,,0.03,,2013-03-25 11:52:00,
2013-03-25 07:02:00,27.0,24.0,29.96,North,350,3.0,9.0,87,0.00,,,0.03,,2013-03-25 12:02:00,
2013-03-25 07:12:00,28.0,25.0,29.96,NNW,336,3.0,9.0,87,0.00,,,0.03,,2013-03-25 12:12:00,
2013-03-25 07:23:00,28.0,25.0,29.96,NNW,336,3.0,9.0,87,0.00,,,0.03,,2013-03-25 12:23:00,
2013-03-25 07:32:00,28.0,24.0,29.97,NNW,336,6.0,10.0,86,0.00,,,0.03,,2013-03-25 12:32:00,
2013-03-25 07:42:00,28.0,24.0,29.97,NNW,336,6.0,10.0,86,0.00,,,0.03,,2013-03-25 12:42:00,
2013-03-25 07:52:00,27.0,22.0,29.98,North,355,5.0,12.0,81,0.00,,,0.03,,2013-03-25 12:52:00,
2013-03-25 08:02:00,27.0,22.0,29.99,NNW,343,4.0,9.0,82,0.00,,,0.03,,2013-03-25 13:02:00,
2013-03-25 08:13:00,27.0,22.0,29.99,NNW,343,4.0,9.0,82,0.00,,,0.03,,2013-03-25 13:13:00,
2013-03-25 08:22:00,27.0,22.0,29.99,NNW,340,3.0,7.0,82,0.00,,,0.03,,2013-03-25 13:22:00,
2013-03-25 08:32:00,27.0,22.0,30.00,NNW,343,4.0,9.0,81,0.00,,,0.03,,2013-03-25 13:32:00,
2013-03-25 08:42:00,27.0,22.0,30.00,NNW,343,4.0,9.0,81,0.00,,,0.03,,2013-03-25 13:42:00,
2013-03-25 08:52:00,28.0,22.0,30.00,NNW,339,4.0,11.0,79,0.00,,,0.03,,2013-03-25 13:52:00,
2013-03-25 09:03:00,28.0,22.0,30.01,NNW,340,7.0,15.0,77,0.00,,,0.03,,2013-03-25 14:03:00,
2013-03-25 09:12:00,28.0,22.0,30.01,NNW,340,7.0,15.0,77,0.00,,,0.03,,2013-03-25 14:12:00,
2013-03-25 09:22:00,28.0,22.0,30.01,NNW,347,6.0,11.0,77,0.00,,,0.03,,2013-03-25 14:22:00,
2013-03-25 09:32:00,28.0,22.0,30.01,North,353,6.0,12.0,77,0.00,,,0.03,,2013-03-25 14:32:00,
2013-03-25 09:42:00,28.0,22.0,30.01,North,353,6.0,12.0,77,0.00,,,0.03,,2013-03-25 14:42:00,
2013-03-25 09:53:00,28.0,22.0,30.02,NNW,339,9.0,12.0,77,0.00,,,0.03,,2013-03-25 14:53:00,
2013-03-25 10:02:00,27.0,20.0,30.03,North,1,10.0,16.0,76,0.00,,,0.03,,2013-03-25 15:02:00,
2013-03-25 10:12:00,27.0,20.0,30.03,North,1,10.0,16.0,76,0.00,,,0.03,,2013-03-25 15:12:00,
2013-03-25 10:22:00,27.0,21.0,30.04,North,2,8.0,13.0,78,0.00,,,0.03,,2013-03-25 15:22:00,
2013-03-25 10:32:00,27.0,21.0,30.04,NNW,337,8.0,14.0,79,0.00,,,0.03,,2013-03-25 15:32:00,
2013-03-25 10:42:00,27.0,21.0,30.04,NNW,337,8.0,14.0,79,0.00,,,0.03,,2013-03-25 15:42:00,
2013-03-25 10:53:00,28.0,22.0,30.05,NNW,344,6.0,14.0,78,0.00,,,0.03,,2013-03-25 15:53:00,
2013-03-25 11:03:00,28.0,21.0,30.05,NNW,335,5.0,15.0,76,0.00,,,0.03,,2013-03-25 16:03:00,
2013-03-25 11:12:00,28.0,21.0,30.05,NNW,335,5.0,15.0,76,0.00,,,0.03,,2013-03-25 16:12:00,
2013-03-25 11:23:00,28.0,21.0,30.05,NNW,335,5.0,15.0,76,0.00,,,0.03,,2013-03-25 16:23:00,
2013-03-25 11:33:00,28.0,21.0,30.06,North,350,8.0,17.0,75,0.00,,,0.03,,2013-03-25 16:33:00,
2013-03-25 11:53:00,29.0,22.0,30.07,NNW,342,6.0,15.0,75,0.00,,,0.03,,2013-03-25 16:53:00,
2013-03-25 12:02:00,29.0,22.0,30.07,NNW,348,5.0,19.0,75,0.00,,,0.03,,2013-03-25 17:02:00,
2013-03-25 12:12:00,29.0,22.0,30.07,NNW,348,5.0,19.0,75,0.00,,,0.03,,2013-03-25 17:12:00,
2013-03-25 12:23:00,30.0,23.0,30.07,North,359,8.0,16.0,75,0.00,,,0.03,,2013-03-25 17:23:00,
2013-03-25 12:32:00,30.0,23.0,30.07,North,353,7.0,15.0,74,0.00,,,0.03,,2013-03-25 17:32:00,
2013-03-25 12:42:00,30.0,23.0,30.07,North,353,7.0,15.0,74,0.00,,,0.03,,2013-03-25 17:42:00,
2013-03-25 12:53:00,31.0,23.0,30.07,North,360,8.0,15.0,73,0.00,,,0.03,,2013-03-25 17:53:00,
2013-03-25 13:03:00,32.0,24.0,30.07,NNW,341,6.0,15.0,73,0.00,,,0.03,,2013-03-25 18:03:00,
2013-03-25 13:12:00,32.0,24.0,30.07,NNW,341,6.0,15.0,73,0.00,,,0.03,,2013-03-25 18:12:00,
2013-03-25 13:22:00,32.0,24.0,30.07,North,6,7.0,15.0,72,0.00,,,0.03,,2013-03-25 18:22:00,
2013-03-25 13:33:00,33.0,25.0,30.07,North,4,7.0,16.0,72,0.01,,,0.04,,2013-03-25 18:33:00,
2013-03-25 13:42:00,33.0,25.0,30.07,North,4,7.0,16.0,72,0.01,,,0.04,,2013-03-25 18:42:00,
2013-03-25 13:52:00,33.0,25.0,30.07,NNW,337,5.0,14.0,71,0.01,,,0.04,,2013-03-25 18:52:00,
2013-03-25 14:03:00,33.0,25.0,30.07,North,354,9.0,16.0,71,0.01,,,0.04,,2013-03-25 19:03:00,
2013-03-25 14:12:00,33.0,25.0,30.07,North,354,9.0,16.0,71,0.01,,,0.04,,2013-03-25 19:12:00,
2013-03-25 14:22:00,34.0,25.0,30.08,North,354,8.0,14.0,70,0.02,,,0.05,,2013-03-25 19:22:00,
2013-03-25 14:33:00,35.0,27.0,30.08,NNW,337,4.0,15.0,71,0.01,,,0.05,,2013-03-25 19:33:00,
2013-03-25 14:42:00,35.0,27.0,30.08,NNW,337,4.0,15.0,71,0.01,,,0.05,,2013-03-25 19:42:00,
2013-03-25 14:52:00,35.0,26.0,30.08,North,354,9.0,14.0,69,0.04,,,0.08,,2013-03-25 19:52:00,
2013-03-25 15:02:00,36.0,26.0,30.08,NNW,346,6.0,14.0,68,0.06,,,0.09,,2013-03-25 20:02:00,
2013-03-25 15:12:00,36.0,26.0,30.08,NNW,346,6.0,14.0,68,0.06,,,0.09,,2013-03-25 20:12:00,
2013-03-25 15:22:00,36.0,26.0,30.08,NNW,343,7.0,12.0,67,0.07,,,0.11,,2013-03-25 20:22:00,
2013-03-25 15:32:00,36.0,26.0,30.09,NNW,346,8.0,13.0,68,0.07,,,0.11,,2013-03-25 20:32:00,
2013-03-25 15:42:00,36.0,26.0,30.09,NNW,346,8.0,13.0,68,0.07,,,0.11,,2013-03-25 20:42:00,
2013-03-25 15:52:00,36.0,26.0,30.09,NNW,342,5.0,11.0,67,0.05,,,0.12,,2013-03-25 20:52:00,
2013-03-25 16:02:00,36.0,26.0,30.09,NNW,341,6.0,13.0,67,0.03,,,0.11,,2013-03-25 21:02:00,
2013-03-25 16:12:00,36.0,26.0,30.09,NNW,341,6.0,13.0,67,0.03,,,0.11,,2013-03-25 21:12:00,
2013-03-25 16:22:00,36.0,26.0,30.09,NNW,332,6.0,13.0,67,0.01,,,0.11,,2013-03-25 21:22:00,
2013-03-25 16:33:00,36.0,25.0,30.10,NNW,343,7.0,21.0,63,0.01,,,0.11,,2013-03-25 21:33:00,
2013-03-25 16:42:00,36.0,25.0,30.10,NNW,343,7.0,21.0,63,0.01,,,0.11,,2013-03-25 21:42:00,
2013-03-25 16:52:00,36.0,24.0,30.10,NNW,346,11.0,16.0,62,0.00,,,0.11,,2013-03-25 21:52:00,
2013-03-25 17:03:00,36.0,25.0,30.11,NNW,335,6.0,11.0,63,0.00,,,0.11,,2013-03-25 22:03:00,
2013-03-25 17:12:00,36.0,25.0,30.11,NNW,335,6.0,11.0,63,0.00,,,0.11,,2013-03-25 22:12:00,
2013-03-25 17:23:00,36.0,25.0,30.11,NNW,339,6.0,14.0,63,0.00,,,0.10,,2013-03-25 22:23:00,
2013-03-25 17:33:00,36.0,24.0,30.11,NNW,348,7.0,12.0,62,0.00,,,0.10,,2013-03-25 22:33:00,
2013-03-25 17:42:00,36.0,24.0,30.11,NNW,348,7.0,12.0,62,0.00,,,0.10,,2013-03-25 22:42:00,
2013-03-25 17:52:00,35.0,24.0,30.12,NNW,345,6.0,14.0,64,0.00,,,0.10,,2013-03-25 22:52:00,
2013-03-25 18:02:00,35.0,24.0,30.12,NNW,345,4.0,12.0,65,0.00,,,0.10,,2013-03-25 23:02:00,
2013-03-25 18:12:00,35.0,24.0,30.12,NNW,345,4.0,12.0,65,0.00,,,0.10,,2013-03-25 23:12:00,
2013-03-25 18:23:00,35.0,25.0,30.13,NNW,336,5.0,11.0,66,0.00,,,0.10,,2013-03-25 23:23:00,
2013-03-25 18:32:00,34.0,24.0,30.14,NNW,347,2.0,8.0,67,0.00,,,0.10,,2013-03-25 23:32:00,
2013-03-25 18:42:00,34.0,24.0,30.14,NNW,347,2.0,8.0,67,0.00,,,0.10,,2013-03-25 23:42:00,
2013-03-25 18:52:00,34.0,25.0,30.14,North,349,2.0,9.0,68,0.00,,,0.10,,2013-03-25 23:52:00,
2013-03-25 19:02:00,34.0,25.0,30.15,NNW,334,4.0,9.0,69,0.00,,,0.10,,2013-03-26 00:02:00,
2013-03-25 19:12:00,34.0,25.0,30.15,NNW,334,4.0,9.0,69,0.00,,,0.10,,2013-03-26 00:12:00,
2013-03-25 19:22:00,33.0,24.0,30.16,NNW,328,1.0,8.0,70,0.00,,,0.10,,2013-03-26 00:22:00,
2013-03-25 19:32:00,33.0,25.0,30.16,North,351,1.0,5.0,71,0.00,,,0.10,,2013-03-26 00:32:00,
2013-03-25 19:42:00,33.0,25.0,30.16,North,351,1.0,5.0,71,0.00,,,0.10,,2013-03-26 00:42:00,
2013-03-25 19:52:00,32.0,24.0,30.16,NNW,331,2.0,6.0,71,0.00,,,0.10,,2013-03-26 00:52:00,
2013-03-25 20:02:00,32.0,24.0,30.17,NNW,331,2.0,6.0,71,0.00,,,0.10,,2013-03-26 01:02:00,
2013-03-25 20:12:00,32.0,24.0,30.17,NNW,331,2.0,6.0,71,0.00,,,0.10,,2013-03-26 01:12:00,
2013-03-25 20:22:00,31.0,23.0,30.17,NW,320,2.0,7.0,73,0.00,,,0.10,,2013-03-26 01:22:00,
2013-03-25 20:32:00,31.0,24.0,30.18,NW,309,3.0,8.0,74,0.00,,,0.10,,2013-03-26 01:32:00,
2013-03-25 20:42:00,31.0,24.0,30.18,NW,309,3.0,8.0,74,0.00,,,0.10,,2013-03-26 01:42:00,
2013-03-25 20:52:00,31.0,24.0,30.18,NNW,335,2.0,6.0,74,0.00,,,0.10,,2013-03-26 01:52:00,
2013-03-25 21:02:00,30.0,23.0,30.18,NNW,336,1.0,5.0,75,0.00,,,0.10,,2013-03-26 02:02:00,
2013-03-25 21:12:00,30.0,23.0,30.18,NNW,336,1.0,5.0,75,0.00,,,0.10,,2013-03-26 02:12:00,
2013-03-25 21:22:00,30.0,23.0,30.19,NW,316,2.0,5.0,75,0.00,,,0.10,,2013-03-26 02:22:00,
2013-03-25 21:32:00,30.0,23.0,30.19,NW,307,1.0,5.0,75,0.00,,,0.10,,2013-03-26 02:32:00,
2013-03-25 21:42:00,30.0,23.0,30.19,NW,307,1.0,5.0,75,0.00,,,0.10,,2013-03-26 02:42:00,
2013-03-25 21:52:00,29.0,23.0,30.20,North,0,0.0,3.0,77,0.00,,,0.10,,2013-03-26 02:52:00,
2013-03-25 22:02:00,28.0,22.0,30.20,North,0,0.0,3.0,78,0.00,,,0.10,,2013-03-26 03:02:00,
2013-03-25 22:12:00,28.0,22.0,30.20,North,0,0.0,3.0,78,0.00,,,0.10,,2013-03-26 03:12:00,
2013-03-25 22:22:00,27.0,21.0,30.21,North,0,0.0,2.0,79,0.00,,,0.10,,2013-03-26 03:22:00,
2013-03-25 22:33:00,27.0,21.0,30.21,WNW,288,1.0,4.0,78,0.00,,,0.10,,2013-03-26 03:33:00,
2013-03-25 22:42:00,27.0,21.0,30.21,WNW,288,1.0,4.0,78,0.00,,,0.10,,2013-03-26 03:42:00,
2013-03-25 22:53:00,27.0,21.0,30.21,WNW,292,1.0,3.0,79,0.00,,,0.10,,2013-03-26 03:53:00,
2013-03-25 23:03:00,27.0,21.0,30.22,North,0,0.0,2.0,79,0.00,,,0.10,,2013-03-26 04:03:00,
2013-03-25 23:12:00,27.0,21.0,30.22,North,0,0.0,2.0,79,0.00,,,0.10,,2013-03-26 04:12:00,
2013-03-25 23:23:00,27.0,22.0,30.22,WNW,298,1.0,4.0,80,0.00,,,0.10,,2013-03-26 04:23:00,
2013-03-25 23:32:00,27.0,22.0,30.22,WNW,298,1.0,4.0,80,0.00,,,0.10,,2013-03-26 04:32:00,
2013-03-25 23:43:00,27.0,22.0,30.22,WNW,298,1.0,4.0,80,0.00,,,0.10,,2013-03-26 04:43:00,
2013-03-25 23:52:00,26.0,21.0,30.22,WNW,292,2.0,4.0,81,0.00,,,0.10,,2013-03-26 04:52:00,